Change the Weather History Date:

Wednesday, March 27, 2013

  Actual Average Record
Temperature  
Mean Temperature 24 °F 37 °F  
Max Temperature 38 °F 49 °F 78 °F (1946)
Min Temperature 10 °F 26 °F -27 °F (1898)
Degree Days  
Heating Degree Days 41 28  
Month to date heating degree days 1145 925  
Since 1 July heating degree days 7352 7295  
Cooling Degree Days 0 0  
Month to date cooling degree days 0 0  
Year to date cooling degree days 0 0  
Moisture  
Dew Point 18 °F    
Average Humidity 71    
Maximum Humidity 88    
Minimum Humidity 54    
Precipitation  
Precipitation 0.00 in 0.02 in 0.84 in (1907)
Month to date precipitation 0.98 0.35  
Year to date precipitation 1.64 0.98  
Snow  
Snow 0.00 in 0.20 in 3.30 in (1979)
Month to date snowfall 13.3 4.2  
Since 1 July snowfall 50.6 31.2  
Snow Depth 1.00 in    
Sea Level Pressure  
Sea Level Pressure 30.16 in    
Wind  
Wind Speed 8 mph (ESE)    
Max Wind Speed 17 mph    
Max Gust Speed 20 mph    
Visibility 10 miles    
Events      
T = Trace of Precipitation, MM = Missing Value Source: NWS Daily Summary

Daily Weather History Graph

Daily Weather History Graph

Search for Another Location

Airport or City:

Trip Planner

Search our weather history database for the weather conditions in past years. The results will help you decide how hot, cold, wet, or windy it might be!

Date:

Astronomy

Mar. 27, 2013 Rise Set
Actual Time 6:54 AM MDT 7:30 PM MDT
Civil Twilight 6:22 AM MDT 8:01 PM MDT
Nautical Twilight 5:45 AM MDT 8:38 PM MDT
Astronomical Twilight 5:06 AM MDT 9:17 PM MDT
Moon 8:23 PM MDT 6:43 AM MDT
Length of Visible Light 13h 38m
Length of Day
12h 35m
Full, 100% of the Moon is Illuminated
Mar 27
Full
Apr 2
Last Quarter
Apr 10
New
Apr 18
First Quarter
Apr 25
Full

Hourly Weather History & Observations

Time (MDT) Temp. Windchill Dew Point Humidity Pressure Visibility Wind Dir Wind Speed Gust Speed Precip Events Conditions
12:53 AM 17.1 °F 7.6 °F 12.9 °F 84% 30.16 in 10.0 mi East 6.9 mph - N/A   Clear
1:53 AM 14.0 °F 8.2 °F 10.0 °F 84% 30.15 in 10.0 mi East 3.5 mph - N/A   Clear
2:53 AM 15.1 °F - 10.0 °F 80% 30.14 in 10.0 mi Calm Calm - N/A   Clear
3:53 AM 16.0 °F - 12.0 °F 84% 30.14 in 10.0 mi Calm Calm - N/A   Clear
4:53 AM 12.0 °F 4.1 °F 8.1 °F 84% 30.14 in 10.0 mi SE 4.6 mph - N/A   Clear
5:53 AM 10.9 °F -0.8 °F 7.0 °F 84% 30.15 in 10.0 mi East 8.1 mph - N/A   Clear
6:53 AM 12.0 °F 1.5 °F 8.1 °F 84% 30.16 in 10.0 mi East 6.9 mph - N/A   Clear
7:53 AM 14.0 °F 8.2 °F 10.9 °F 88% 30.18 in 10.0 mi SSE 3.5 mph - N/A   Clear
8:53 AM 18.0 °F 6.1 °F 14.0 °F 84% 30.18 in 10.0 mi East 10.4 mph - N/A   Clear
9:53 AM 21.9 °F 11.0 °F 18.0 °F 85% 30.18 in 10.0 mi ESE 10.4 mph - N/A   Clear
10:53 AM 26.1 °F 16.8 °F 19.9 °F 78% 30.17 in 10.0 mi East 9.2 mph - N/A   Clear
11:53 AM 30.0 °F 21.1 °F 23.0 °F 75% 30.17 in 10.0 mi ESE 10.4 mph - N/A   Clear
12:53 PM 32.0 °F 22.5 °F 24.1 °F 73% 30.16 in 10.0 mi East 12.7 mph - N/A   Clear
1:53 PM 35.1 °F 25.9 °F 25.0 °F 67% 30.16 in 10.0 mi ESE 13.8 mph - N/A   Partly Cloudy
2:53 PM 36.0 °F 26.7 °F 24.1 °F 62% 30.15 in 10.0 mi ESE 15.0 mph - N/A   Clear
3:53 PM 37.0 °F 27.7 °F 23.0 °F 57% 30.14 in 10.0 mi ESE 16.1 mph - N/A   Clear
4:53 PM 37.9 °F 29.2 °F 23.0 °F 55% 30.15 in 10.0 mi East 15.0 mph - N/A   Clear
5:53 PM 37.0 °F 29.3 °F 25.0 °F 62% 30.15 in 10.0 mi East 11.5 mph - N/A   Clear
6:53 PM 35.1 °F 26.4 °F 25.0 °F 67% 30.15 in 10.0 mi East 12.7 mph - N/A   Clear
7:53 PM 32.0 °F 22.5 °F 23.0 °F 69% 30.16 in 10.0 mi East 12.7 mph - N/A   Clear
8:53 PM 30.0 °F 21.7 °F 21.0 °F 69% 30.17 in 10.0 mi East 9.2 mph - N/A   Clear
9:53 PM 27.0 °F 18.7 °F 21.0 °F 78% 30.18 in 10.0 mi ESE 8.1 mph - N/A   Clear
10:53 PM 25.0 °F 20.7 °F 19.9 °F 81% 30.18 in 10.0 mi East 3.5 mph - N/A   Clear
11:53 PM 24.1 °F 18.2 °F 21.0 °F 88% 30.18 in 10.0 mi East 4.6 mph - N/A   Clear